Wind_Speed
40 40 40 40 39 39 40 41 41 41 40 39 40 39 37 36 35 34 34 33 32 31 31 32 31 30 29 28 27 26 26 24 23 23 23 21 20 18 18 18 18 17 16 14 13 13 13 13 12 12 11 11 12 11 9 9 10 9 8 9 10 11 12 12 12 14 16 15 14 15 15 14 15 16 16 17 18 17 17 17 16 16 17 18 19
40 40 39 39 39 39 39 40 40 40 40 39 40 40 38 37 36 34 34 34 34 33 33 33 32 32 31 29 29 29 28 26 25 24 24 23 22 20 19 19 19 19 18 18 16 14 14 15 15 14 13 12 13 13 12 11 11 12 13 13 13 13 14 15 15 15 16 17 15 15 14 14 16 17 17 19 19 18 18 17 16 16 17 19 20
40 40 39 40 40 39 39 39 39 39 39 39 39 39 39 38 36 35 35 35 35 35 34 34 34 33 33 31 30 30 29 28 28 26 26 25 24 23 22 20 20 20 20 20 19 18 16 15 15 16 15 15 15 15 14 14 13 14 14 14 14 14 15 17 18 17 17 16 14 13 15 16 18 19 18 19 19 19 19 19 18 18 19 21 22
39 39 40 40 39 39 39 39 39 39 39 39 38 39 38 38 37 36 35 35 36 36 34 34 35 35 34 33 32 31 31 30 30 29 28 27 26 25 25 23 21 20 20 20 20 21 20 18 16 16 17 17 17 16 16 15 15 15 15 14 13 13 14 15 16 16 15 14 15 17 18 19 20 20 19 19 19 18 19 19 19 20 22 22 22
38 38 39 39 39 39 40 40 40 40 39 38 38 38 37 37 37 37 36 35 36 37 35 34 36 35 35 35 34 33 33 32 31 31 30 29 27 27 26 25 23 22 21 21 20 21 22 22 20 18 18 18 18 18 18 17 16 16 16 16 14 13 13 14 15 15 15 17 19 19 19 20 21 21 19 19 20 19 20 21 21 22 22 18 14
37 37 38 39 39 40 40 40 40 40 40 39 38 37 37 36 37 37 37 36 36 37 37 36 36 36 35 35 35 35 35 34 33 32 31 30 29 28 27 27 25 24 23 23 22 21 21 22 22 21 20 20 20 20 20 19 19 18 17 17 17 16 15 15 15 15 17 18 19 20 20 21 22 21 18 17 19 21 23 24 22 18 14 11 13
36 36 37 38 38 39 40 40 40 40 40 39 38 37 37 37 37 37 38 37 36 37 38 37 37 37 36 36 36 36 35 35 34 34 32 31 30 29 28 28 27 26 25 25 24 23 22 22 22 22 22 22 22 22 21 21 20 20 19 18 18 17 17 17 16 16 16 17 18 19 21 20 20 20 19 18 20 22 23 22 17 12 10 14 20
37 36 36 37 38 38 40 40 40 40 40 40 38 37 37 37 37 37 38 38 37 37 39 39 38 38 37 37 36 36 36 35 34 35 34 32 31 31 30 29 29 28 27 26 26 25 24 24 24 24 24 24 24 23 23 22 21 21 20 20 19 19 19 19 18 18 18 18 18 19 20 20 20 21 20 20 20 18 14 13 13 12 14 20 24
36 36 35 36 38 38 38 39 39 39 39 39 39 38 38 37 37 38 38 39 37 37 38 39 39 38 38 37 37 36 36 36 36 35 35 34 33 32 32 31 30 31 30 28 27 27 26 26 26 26 26 25 25 24 24 24 23 23 22 21 21 21 21 20 19 20 19 19 19 19 20 21 22 21 21 20 17 14 12 13 15 16 19 22 23
36 35 35 35 36 37 37 38 38 38 39 40 40 39 39 38 37 38 39 39 38 36 36 38 39 38 38 37 37 36 36 37 38 38 37 36 35 33 33 32 31 31 31 30 29 29 28 28 27 26 26 25 25 25 25 25 25 25 25 24 23 23 22 22 21 21 20 19 20 20 19 21 23 22 19 17 14 13 15 17 17 18 18 18 20
36 35 35 35 35 36 37 38 38 39 39 40 40 39 38 38 38 38 39 40 39 36 35 37 38 38 38 38 38 37 37 37 39 40 39 39 37 35 33 33 33 32 30 30 30 30 30 29 29 27 26 25 26 26 27 26 26 26 25 25 25 24 24 23 23 23 21 19 19 19 18 21 24 21 17 17 17 17 18 18 17 17 15 12 15
36 35 34 36 36 36 37 38 39 40 39 39 40 39 38 38 37 38 39 40 40 38 36 36 38 38 37 37 38 39 39 38 39 40 41 40 39 37 34 33 33 33 32 31 31 30 30 29 29 28 27 27 28 28 28 29 28 28 27 26 26 26 26 26 25 24 22 20 19 20 21 22 24 23 21 20 20 19 18 17 17 16 13 12 15
35 36 35 37 38 37 38 38 39 40 40 39 40 39 39 38 38 37 39 40 40 40 38 36 37 38 37 37 38 39 39 40 40 39 40 41 40 39 36 33 32 33 33 33 32 31 30 30 29 29 29 28 28 28 29 30 30 30 29 29 29 29 29 28 27 26 25 23 23 25 27 26 26 27 26 23 22 19 17 17 17 15 15 16 18
33 36 36 37 39 39 39 39 39 40 40 40 40 39 39 39 38 37 37 39 40 40 39 36 36 38 39 38 37 38 38 40 41 40 39 40 40 40 38 35 32 31 32 33 33 32 31 31 30 31 30 29 28 27 27 28 30 32 32 32 32 31 31 31 30 29 28 27 28 30 30 28 28 27 24 22 21 19 17 17 16 16 17 18 17
32 35 36 37 39 40 40 40 39 39 40 40 39 40 40 39 38 36 35 37 40 41 41 39 36 37 39 39 37 37 38 39 40 40 39 38 39 39 39 36 33 31 30 30 31 33 33 32 31 31 31 31 30 29 27 25 26 30 33 34 33 32 32 31 30 29 28 28 29 30 29 26 24 22 19 18 20 19 18 17 16 17 19 17 14
31 35 36 37 39 41 41 40 40 39 39 39 39 40 40 39 39 37 35 36 38 40 40 39 37 36 38 39 38 37 37 38 39 39 38 37 37 38 39 37 33 31 31 30 30 31 32 32 32 32 32 33 33 32 31 27 24 25 29 33 33 33 33 31 29 27 25 24 24 25 24 20 18 18 18 18 19 18 17 17 18 19 17 13 13
29 33 36 37 39 41 41 40 40 39 39 39 39 40 41 40 39 38 35 34 36 38 39 39 39 38 36 37 38 38 37 37 38 39 38 37 37 38 39 38 35 33 32 31 30 30 30 31 32 32 33 33 33 32 31 30 27 25 26 29 31 32 32 30 28 25 22 20 20 20 20 19 19 20 20 20 19 18 17 19 20 18 13 9 10
28 31 36 38 39 41 41 40 39 39 39 40 39 39 40 40 40 39 37 35 35 37 39 38 38 39 38 36 36 37 37 38 38 38 37 38 38 38 39 39 37 36 34 32 30 28 28 29 30 32 34 34 33 32 30 29 29 28 27 27 27 29 30 28 26 23 20 18 18 19 21 22 23 23 22 20 19 18 20 22 21 16 11 9 10
30 30 32 36 38 39 40 41 40 40 39 39 39 38 39 40 40 40 39 36 34 35 37 37 37 38 39 38 36 35 35 36 38 38 37 37 38 39 40 38 37 36 36 35 34 32 30 28 27 28 31 32 32 31 29 28 29 30 29 27 25 27 28 26 23 21 19 18 19 21 23 24 24 24 23 20 18 19 21 22 20 16 13 11 11
32 31 30 33 36 38 39 41 41 40 40 39 38 37 37 37 38 39 39 37 35 33 35 37 36 36 38 38 37 36 34 33 35 36 37 38 39 40 40 39 37 37 37 37 37 36 36 35 32 30 29 29 29 30 29 28 28 28 28 28 28 29 29 26 23 22 21 21 22 23 23 21 21 21 19 17 16 18 19 19 18 17 14 12 9
30 31 31 32 36 38 38 40 41 40 39 38 36 36 36 36 37 38 38 37 35 33 33 36 36 35 36 36 37 37 37 35 34 33 34 36 38 41 41 40 39 39 38 37 36 36 37 39 39 38 35 33 31 30 30 30 29 28 28 29 29 30 29 27 26 23 21 20 20 20 17 14 13 13 13 14 15 17 20 20 17 12 10 9 7
28 31 33 33 35 37 37 38 39 38 37 37 36 36 36 36 36 37 37 37 36 34 32 33 34 34 35 35 35 35 36 38 38 36 35 34 35 39 42 42 41 40 38 35 34 35 36 38 39 39 40 39 36 34 32 32 31 32 32 31 29 28 27 27 25 23 21 17 14 13 12 11 11 10 10 12 13 13 14 14 10 6 6 6 6
28 31 34 35 35 36 37 37 37 36 36 37 37 36 36 36 36 36 37 36 36 34 32 31 32 32 32 33 34 34 34 37 39 40 39 37 36 37 40 41 41 41 38 35 34 35 37 37 37 37 37 38 37 36 35 34 33 34 34 33 31 29 27 26 25 23 22 18 15 13 12 11 11 10 9 10 8 4 5 6 6 5 4 4 5
29 31 35 36 37 37 37 37 38 37 36 37 37 35 36 36 35 36 37 36 35 34 32 31 30 30 30 31 33 34 34 35 38 40 41 41 40 39 40 41 41 41 39 36 35 36 36 36 36 36 34 33 32 33 33 34 35 35 34 33 33 31 28 27 25 24 23 21 19 17 14 12 10 9 9 9 5 7 8 7 6 3 2 2 4
29 32 35 37 37 37 37 37 38 38 37 37 37 36 36 35 35 35 36 36 34 33 32 31 30 29 30 30 31 33 35 36 38 40 41 42 42 41 41 42 42 42 41 38 37 37 36 35 34 32 30 29 29 29 30 31 33 33 33 33 33 32 30 27 26 24 22 22 21 19 17 15 13 11 11 9 7 7 5 4 2 2 4 4 5
30 33 35 36 37 37 36 36 37 38 38 38 38 37 36 35 35 34 34 34 34 33 33 32 30 29 29 30 32 34 35 36 38 40 41 42 43 42 41 42 43 43 42 40 37 36 34 32 30 28 27 27 29 29 30 29 29 30 32 33 33 32 30 28 26 24 23 22 21 20 19 17 15 13 12 11 9 8 7 6 5 4 4 5 2
30 32 34 35 36 36 36 36 36 36 38 37 36 36 37 36 35 34 34 34 34 33 33 32 31 30 29 29 31 34 35 35 37 39 41 42 43 43 42 42 43 44 44 41 38 35 33 30 27 25 24 24 25 27 28 29 29 30 32 33 33 32 30 29 28 25 24 22 21 19 17 15 13 13 13 14 13 11 11 10 7 5 5 5 3
30 33 34 34 35 36 37 38 37 35 36 36 34 34 35 36 35 36 38 37 36 34 34 34 34 33 32 30 29 31 32 35 37 40 42 42 42 43 44 44 45 46 46 43 40 36 32 29 26 24 23 22 21 21 22 23 26 29 30 31 32 31 29 28 25 23 21 20 17 15 13 13 15 15 15 17 17 16 15 12 8 6 6 6 5
30 33 34 33 34 36 36 37 36 34 33 35 35 34 36 36 36 36 38 39 39 38 36 36 38 38 36 34 32 30 30 34 38 42 42 41 40 42 43 44 45 45 45 45 41 35 29 27 26 25 25 23 21 20 19 19 21 24 26 28 29 29 27 24 22 20 20 18 16 15 15 16 17 17 19 20 19 16 13 9 6 4 4 5 4
30 30 32 32 33 35 35 35 35 34 32 32 32 32 33 36 37 35 35 38 41 41 40 39 40 40 39 39 40 38 38 38 39 40 40 39 39 40 39 40 42 42 42 43 40 33 28 27 26 25 24 23 22 21 20 19 19 20 21 22 24 24 24 23 21 20 20 19 18 18 19 19 19 21 22 20 15 12 9 6 4 3 4 4 3
28 28 30 33 34 34 32 31 31 31 30 31 31 29 28 30 33 34 34 35 39 41 41 40 39 39 39 39 41 43 43 40 37 38 39 39 39 38 38 38 39 38 40 42 39 32 27 25 25 25 24 23 23 22 22 22 21 21 20 20 22 22 23 22 21 20 21 21 21 21 21 20 20 21 20 15 13 12 10 7 6 5 5 6 5
25 27 27 29 31 31 31 30 30 30 28 28 27 26 25 24 26 28 31 34 37 40 41 39 38 39 39 39 39 40 40 37 35 36 37 37 37 37 37 37 36 37 39 39 37 33 29 26 25 25 25 24 24 24 24 23 23 23 23 22 23 23 24 23 21 20 21 22 23 22 21 20 20 20 17 14 14 15 12 9 9 8 8 9 8
17 15 9 5 7 11 14 17 22 25 26 27 27 26 26 24 23 24 25 28 32 37 38 38 37 37 38 39 38 38 38 38 35 34 34 35 36 35 34 35 35 37 39 37 33 31 31 30 28 28 28 27 26 25 25 25 25 25 25 25 25 24 24 23 22 21 21 22 23 23 22 21 21 20 17 15 16 16 13 11 12 12 12 12 9
9 5 4 3 8 12 11 9 9 11 12 15 19 23 28 29 26 23 21 20 23 28 32 35 36 36 37 38 37 35 36 37 37 36 35 35 35 33 34 35 35 35 36 36 34 33 32 32 31 29 28 27 27 26 26 26 25 24 24 26 26 25 23 23 22 21 20 22 23 23 22 22 22 20 18 16 15 14 13 13 13 14 15 14 11
3 6 11 11 14 20 23 22 22 20 18 17 17 16 18 24 26 26 25 23 22 23 25 28 31 32 33 35 34 33 32 34 37 37 35 33 34 35 34 33 31 31 33 34 35 34 32 31 30 29 28 27 28 28 27 27 28 27 26 25 25 25 25 25 24 23 23 25 25 24 24 23 22 21 18 16 14 14 14 14 15 16 15 14 12
1 10 15 12 11 13 17 22 27 27 26 26 21 16 14 16 20 24 26 26 24 23 21 22 24 25 27 29 29 29 28 30 33 35 33 31 34 36 34 31 30 31 33 34 33 30 28 28 28 28 28 27 27 27 28 28 26 22 21 22 25 27 27 27 26 26 26 25 24 23 24 23 21 19 16 15 14 15 15 14 13 13 14 15 11
2 7 13 16 17 16 14 17 22 21 17 18 19 16 14 16 19 21 23 24 24 23 22 22 21 21 22 23 25 25 25 24 27 29 28 29 32 34 34 34 32 31 32 32 30 28 26 25 25 25 25 26 26 26 26 22 15 12 14 21 27 30 29 28 29 28 26 23 23 22 20 18 18 18 17 16 14 14 15 14 11 10 13 13 9
4 4 7 11 15 17 17 17 19 20 16 14 15 15 13 12 16 18 20 23 24 24 24 24 24 23 23 23 23 24 24 23 23 24 24 27 30 30 29 30 31 30 31 31 30 27 25 23 22 22 22 24 25 24 22 17 14 15 19 24 28 30 28 27 27 25 22 20 21 20 19 18 18 18 18 16 11 9 11 13 12 11 13 11 9
9 5 7 10 12 16 18 17 18 18 18 18 19 19 17 14 13 16 19 22 24 25 25 26 25 24 25 25 23 23 23 22 22 23 24 27 28 24 21 23 24 23 25 27 27 25 23 21 21 22 22 21 21 21 19 17 17 18 21 24 26 27 26 24 22 22 22 22 21 20 21 21 19 17 16 15 12 9 8 9 10 12 12 10 10
16 11 9 11 13 15 17 18 19 19 19 22 23 22 20 19 18 18 21 23 22 23 25 25 24 24 25 27 26 25 24 23 22 23 25 26 24 19 16 18 19 18 18 20 22 22 21 20 19 19 19 18 18 17 18 18 19 20 25 29 29 28 27 26 24 24 26 26 24 23 24 23 19 15 14 14 13 11 9 6 6 8 8 7 6
21 20 17 12 9 11 13 15 16 17 20 24 27 24 21 19 19 19 18 19 18 21 23 22 21 22 25 27 26 25 24 23 22 22 23 24 22 17 14 15 16 16 16 17 18 20 20 18 17 15 14 14 14 14 15 17 19 23 27 29 28 28 29 28 26 25 24 23 23 23 22 21 17 14 14 13 12 12 9 6 4 4 4 4 4
21 24 26 22 16 11 9 10 13 16 19 23 25 25 23 21 20 20 18 16 16 20 21 20 19 21 23 24 23 21 20 21 21 21 20 20 18 16 14 14 15 15 16 17 18 19 19 17 15 14 13 12 12 14 15 17 19 23 26 25 25 26 26 24 23 23 22 21 20 19 17 15 13 13 12 11 11 10 9 7 6 4 4 4 5
21 27 30 28 23 18 14 13 13 14 16 19 22 23 23 23 23 25 24 22 21 23 24 24 22 22 21 21 20 20 20 21 21 21 19 19 18 17 17 17 17 17 18 18 19 20 20 20 20 19 19 19 19 19 20 21 23 26 27 26 26 25 23 21 19 18 17 16 15 13 12 11 11 12 12 10 9 8 6 6 8 7 6 6 6
22 29 32 31 28 23 19 18 18 16 15 18 21 22 24 26 28 27 27 25 24 25 26 26 25 24 22 21 21 23 24 24 24 24 23 22 22 22 22 22 22 22 22 22 22 22 22 23 23 23 22 21 21 22 23 24 25 27 28 27 26 23 19 16 14 13 13 13 11 11 11 11 10 10 9 8 8 8 6 3 4 4 2 1 2
25 29 30 29 29 27 24 22 23 22 20 19 19 20 22 25 26 25 25 25 26 26 27 27 27 27 26 26 26 27 28 28 28 27 27 26 26 25 25 26 26 27 27 26 25 24 25 25 25 25 24 23 23 23 23 23 23 24 24 24 23 21 17 16 15 14 13 13 14 14 14 13 11 11 9 8 7 8 7 6 6 6 7 7 8
26 28 28 27 28 28 26 26 27 29 27 24 21 22 22 23 24 24 25 27 29 30 29 29 29 29 29 28 28 28 28 28 28 28 28 27 27 27 27 28 29 29 28 28 27 27 27 27 27 26 26 25 25 25 25 24 23 22 21 20 20 19 19 19 18 17 16 17 17 17 16 15 14 13 12 12 12 11 10 10 9 9 9 8 8
26 27 27 26 27 28 27 26 27 30 30 26 23 25 27 27 29 30 30 30 32 32 31 30 30 30 29 29 28 28 29 29 29 29 29 28 28 28 28 29 30 30 29 28 28 28 28 27 27 28 28 27 26 26 26 25 24 23 22 20 19 20 20 19 19 18 18 18 16 15 14 14 14 13 12 12 12 10 10 10 10 9 8 7 6
25 26 27 27 27 28 28 27 26 26 26 24 24 26 28 29 30 30 30 31 31 31 31 31 30 30 30 29 29 29 30 30 30 30 30 29 28 29 29 29 30 30 30 29 28 28 27 27 28 29 29 29 28 27 26 25 24 23 22 21 20 19 18 17 17 16 16 15 14 13 13 14 14 13 12 11 10 8 8 7 7 6 5 4 4
25 25 26 28 27 27 27 27 27 25 24 24 26 27 28 28 29 29 29 30 30 30 30 29 29 28 29 29 28 29 30 30 30 30 30 29 29 29 29 29 30 30 30 31 30 30 29 29 29 30 30 29 28 27 26 24 23 22 21 20 18 17 16 16 15 15 14 14 13 12 12 12 12 11 10 9 8 7 6 4 3 2 2 3 4
26 26 26 27 27 26 26 27 27 27 26 28 29 28 27 28 29 29 30 31 31 30 30 30 29 28 28 28 28 29 29 29 29 28 28 29 29 29 29 30 30 30 31 32 31 30 29 29 29 30 29 28 27 26 24 23 22 21 20 18 17 16 15 15 14 14 13 13 12 11 10 10 10 9 8 6 5 3 2 1 2 3 4 4 5
26 26 27 27 26 26 26 27 27 26 26 28 29 29 27 27 28 29 31 33 33 32 31 31 31 30 30 30 30 30 30 29 28 27 27 27 28 29 29 30 30 30 30 31 30 29 29 29 29 29 28 27 26 25 23 22 21 19 18 16 15 14 13 12 12 11 11 10 10 9 9 8 7 6 4 2 1 1 2 2 2 3 3 3 3
Wind_Direction
198 200 202 204 205 205 204 202 202 201 200 200 200 201 201 201 201 201 200 201 203 204 202 201 202 202 201 201 200 201 202 203 203 200 200 205 202 202 207 206 205 207 208 213 217 217 221 226 229 226 221 223 228 231 237 233 234 245 242 229 229 234 237 236 235 253 274 287 293 301 310 312 309 310 308 304 304 305 308 312 313 311 308 307 309
197 200 202 204 206 207 206 204 203 202 201 201 202 202 202 202 202 201 201 201 202 203 203 201 202 202 201 201 202 202 202 202 203 203 203 205 204 202 207 211 209 208 209 212 215 218 225 230 228 228 229 230 232 234 237 233 235 247 245 236 236 237 237 241 241 246 264 279 287 294 300 302 302 306 307 306 309 314 315 316 318 315 312 310 310
197 199 201 204 206 207 207 206 204 203 202 202 203 203 203 203 203 201 202 202 202 203 205 203 202 202 202 202 203 204 205 203 203 205 206 207 206 203 205 212 215 214 215 216 214 214 222 228 227 227 229 231 235 236 236 234 238 248 250 242 242 245 244 246 247 249 259 274 287 292 296 300 301 305 310 310 311 312 310 311 313 311 311 313 312
196 199 201 204 206 207 207 206 205 204 203 203 203 204 204 204 203 202 202 202 202 203 205 204 202 202 202 203 205 206 207 206 204 206 207 209 210 206 204 209 216 218 220 222 220 217 219 224 226 227 228 230 235 238 238 238 239 245 252 251 248 250 249 248 252 257 263 276 288 291 295 299 300 305 311 310 308 307 306 308 309 309 312 315 315
196 199 201 203 205 206 206 206 205 204 203 203 204 204 204 204 203 203 202 202 202 203 204 203 201 201 202 203 205 206 208 207 205 205 207 209 212 211 208 208 213 218 221 223 226 223 223 225 226 227 230 232 234 236 239 241 242 245 249 252 255 257 258 259 263 267 271 278 283 288 292 295 297 303 308 307 305 306 307 307 307 310 313 315 314
195 198 200 202 204 205 205 205 204 204 204 204 204 204 204 204 203 203 202 201 202 202 203 203 202 203 204 205 206 207 208 209 207 206 207 209 212 214 212 210 212 218 221 223 227 230 229 229 230 230 231 234 235 237 239 241 242 245 247 249 253 257 260 262 263 265 267 271 275 283 288 290 294 298 303 307 305 303 304 305 308 314 314 313 316
195 197 198 200 202 203 204 204 204 204 204 204 204 204 204 203 203 204 203 202 201 201 202 203 203 205 206 206 207 208 209 210 210 208 207 209 211 214 214 212 212 216 222 224 227 230 232 232 234 235 235 236 238 238 240 241 242 244 247 249 250 252 255 257 258 261 265 269 274 279 284 287 289 291 298 306 304 301 301 302 309 320 318 319 324
194 196 197 198 200 203 204 204 204 204 203 204 203 203 204 203 203 204 203 202 202 201 201 203 204 206 207 208 208 209 209 210 211 210 209 209 211 213 215 215 213 215 219 223 226 228 230 232 234 237 238 239 240 240 240 242 242 243 246 248 248 249 251 253 256 261 265 269 273 275 280 284 285 287 295 300 299 303 310 309 312 323 327 326 327
194 195 196 198 199 202 203 202 203 204 203 203 203 203 203 203 203 204 204 204 204 203 202 203 203 205 207 208 209 209 210 210 211 211 210 210 212 214 216 216 216 217 218 220 223 226 228 231 234 236 238 240 242 242 243 243 243 244 244 245 247 248 248 251 255 258 260 262 266 271 275 278 280 283 289 292 294 305 317 315 313 320 327 326 325
192 195 196 198 199 200 201 201 201 202 203 202 202 203 202 202 203 203 203 204 204 204 203 203 203 204 205 207 208 209 211 213 214 214 213 213 213 214 216 217 218 219 220 221 222 224 227 230 233 237 239 241 242 242 243 243 243 244 245 245 245 245 246 249 251 253 254 255 260 266 269 272 276 279 282 285 291 302 309 310 312 319 325 326 326
191 195 196 196 198 198 198 199 200 201 203 202 202 203 202 201 202 202 202 203 204 205 204 203 203 205 206 207 207 208 211 214 216 216 217 216 215 214 216 218 219 219 221 222 223 225 227 229 232 235 237 241 244 244 244 244 243 244 245 246 245 244 244 245 247 249 249 249 256 261 262 267 274 277 278 281 288 296 303 305 309 315 323 327 323
191 194 196 194 195 197 197 198 199 200 202 202 202 203 203 202 202 201 201 201 202 204 205 204 203 205 206 207 208 209 211 214 217 218 218 219 218 217 217 218 220 220 221 223 225 226 228 229 232 234 236 239 243 246 246 245 244 245 245 246 245 245 244 245 246 246 245 246 253 258 260 264 270 274 275 278 286 295 300 301 304 309 317 322 315
193 193 194 193 194 196 197 197 199 200 201 202 202 203 203 203 203 201 200 200 201 202 205 205 203 204 206 207 208 210 212 215 217 219 219 220 220 219 219 219 220 222 222 224 226 229 230 231 232 235 237 240 243 246 248 247 246 245 245 246 246 244 245 246 248 249 250 253 257 262 265 264 266 273 277 279 285 292 295 296 301 305 311 317 314
194 193 193 193 193 195 196 197 199 200 201 202 202 203 203 204 204 203 201 200 200 201 203 205 204 203 205 207 208 211 213 216 218 219 221 222 222 221 221 221 222 224 226 226 227 229 232 234 234 235 238 239 241 244 247 248 247 245 243 243 244 245 246 246 248 250 253 256 259 264 269 269 269 275 282 282 281 283 286 291 297 304 310 313 314
195 193 194 193 192 193 195 196 198 199 200 201 201 203 204 204 204 204 202 201 200 201 203 205 205 204 204 206 208 210 214 217 219 220 222 223 223 222 222 222 223 226 229 230 230 231 232 235 237 239 240 240 239 241 247 252 250 246 243 242 243 246 247 248 250 251 253 257 261 264 269 272 272 275 279 277 276 276 278 282 292 303 309 309 314
197 193 195 194 192 193 195 195 197 198 199 200 201 202 203 205 205 204 203 202 202 202 202 204 206 205 204 205 207 209 213 217 219 221 222 223 223 222 222 222 223 226 229 232 233 234 234 236 238 241 243 245 244 244 247 253 254 250 246 245 245 246 248 252 254 254 257 262 264 265 267 269 270 272 272 272 273 271 269 276 289 298 303 305 312
201 195 195 195 193 194 195 195 196 198 199 200 201 202 202 204 204 204 204 203 202 202 202 204 206 206 205 205 207 209 211 215 218 221 222 222 222 221 220 221 222 224 227 230 232 236 237 238 239 241 243 246 247 247 247 249 251 251 249 247 246 247 250 253 255 256 260 264 264 263 265 266 266 266 267 268 268 265 264 274 285 290 292 296 305
208 201 197 196 195 194 195 196 196 197 199 201 202 202 202 203 204 204 204 203 202 202 203 203 205 207 207 207 207 208 211 214 217 219 221 221 221 220 219 219 220 223 226 228 229 232 235 237 238 240 242 244 247 248 247 245 245 247 247 245 243 245 249 253 254 257 261 261 263 266 266 265 263 261 262 264 266 266 266 272 279 280 277 280 292
214 210 202 198 197 196 196 197 197 198 200 202 203 203 203 203 203 204 205 205 204 203 202 203 204 207 209 210 210 209 209 212 216 218 219 220 219 219 218 216 218 222 226 227 229 230 232 234 234 236 241 244 245 246 245 243 242 244 245 242 238 241 247 251 251 253 254 256 264 269 268 266 263 261 263 264 266 267 266 269 274 271 265 276 290
222 216 208 201 199 198 198 197 198 199 201 202 203 204 205 204 203 203 205 206 206 204 202 203 204 206 208 211 212 212 212 212 214 217 218 219 219 218 216 214 216 221 225 227 229 231 234 236 236 236 237 241 243 244 244 243 243 244 245 242 240 244 249 250 249 250 254 261 268 269 268 266 262 259 259 258 261 267 268 269 272 269 267 277 286
231 218 209 203 200 200 199 199 199 200 201 202 202 204 205 205 204 204 205 206 206 205 202 202 204 206 207 209 212 214 216 216 217 217 217 218 219 217 214 214 217 221 224 226 228 230 234 237 239 240 239 238 240 242 244 245 245 246 246 246 247 250 252 251 251 253 257 263 265 262 258 254 248 246 248 256 269 279 278 276 274 267 263 268 272
239 219 208 202 200 200 200 200 199 199 200 200 201 203 205 206 206 205 205 206 206 206 204 201 201 204 206 208 211 213 215 218 220 221 220 219 219 217 216 217 220 221 222 224 225 229 234 238 241 244 243 242 242 242 243 245 246 246 248 249 251 253 252 251 251 250 251 252 250 248 247 242 239 240 250 270 281 282 275 270 258 232 236 258 280
243 221 208 202 200 199 199 200 198 198 199 199 200 202 203 204 206 206 206 207 207 207 205 201 199 201 203 206 209 212 214 216 219 221 222 223 222 220 219 221 222 222 221 222 225 229 234 239 244 248 248 247 246 245 244 245 245 246 248 249 250 251 249 248 246 243 242 241 241 244 245 242 242 245 256 274 274 225 195 198 188 191 225 268 311
244 222 208 201 199 198 198 198 198 198 198 198 200 202 202 203 205 206 206 207 207 207 206 202 198 198 200 203 207 210 212 215 218 221 222 223 224 223 223 223 224 224 223 224 228 232 236 240 245 249 250 250 251 250 249 248 248 248 249 249 249 248 245 242 241 239 238 240 243 248 250 250 251 255 265 268 235 169 161 164 167 192 258 307 336
239 219 207 201 198 196 196 196 197 197 198 198 199 200 201 202 204 206 205 205 206 207 206 204 200 197 199 201 204 208 210 213 217 220 222 223 223 224 224 224 224 225 225 226 229 233 237 241 245 248 251 253 253 253 250 249 249 249 251 250 246 243 241 239 238 237 237 241 247 253 259 262 262 262 262 253 220 193 192 194 212 283 298 304 321
231 215 206 201 197 194 193 194 196 197 197 199 200 201 200 201 204 205 205 205 206 207 205 204 202 199 199 200 202 205 208 210 214 218 220 221 222 224 225 225 225 226 227 228 230 232 234 238 242 245 248 251 251 250 248 248 247 246 247 247 244 240 239 238 237 237 239 246 253 259 265 266 263 255 244 230 217 213 221 235 251 265 270 280 289
224 212 205 200 195 192 192 193 194 196 197 198 201 201 201 203 204 205 205 204 205 206 205 205 203 201 200 200 201 203 205 207 211 215 217 218 220 221 223 224 224 223 224 226 227 228 230 232 234 238 242 245 247 248 248 246 245 243 243 243 242 240 238 239 240 242 247 253 259 263 265 260 249 235 222 219 219 219 222 229 230 226 230 235 193
222 211 204 199 194 192 193 193 193 195 196 198 200 201 201 203 205 206 206 205 204 204 203 203 205 204 202 200 199 200 203 205 208 211 214 216 218 219 221 223 222 221 221 223 224 225 226 227 228 232 237 241 245 248 250 248 246 243 241 239 238 238 238 238 242 245 250 255 255 254 248 237 226 218 214 217 217 214 217 221 219 216 211 193 167
220 211 203 198 195 194 194 194 193 194 196 198 201 203 203 204 207 210 210 208 206 205 204 204 205 205 204 203 201 200 203 206 208 211 214 216 217 218 219 221 222 222 223 224 222 221 221 222 225 229 232 237 241 244 247 249 247 242 239 236 235 234 234 235 237 241 244 244 239 234 229 222 215 210 210 212 209 207 214 218 214 213 185 158 157
215 210 203 199 197 195 194 193 193 194 196 198 202 205 206 206 209 211 212 212 212 210 208 208 208 205 205 207 207 207 209 210 211 212 214 216 218 220 221 222 223 223 224 223 218 215 215 217 220 225 228 230 233 236 238 241 241 239 237 234 230 229 230 231 232 236 238 233 227 224 221 215 209 204 204 203 198 195 202 200 194 202 182 167 193
210 208 205 201 199 196 194 192 192 194 197 198 200 202 203 204 208 211 211 212 214 214 214 213 213 210 208 209 211 213 215 215 214 214 215 216 219 220 222 224 224 223 223 221 214 209 211 215 218 223 226 227 228 230 231 232 232 232 230 227 226 226 226 228 231 234 234 227 219 218 215 208 200 195 192 188 184 183 183 184 194 207 199 200 224
220 211 208 205 201 196 193 191 192 195 198 200 201 199 196 196 202 208 211 211 212 213 215 216 215 215 214 213 213 215 216 216 217 217 217 218 219 221 222 224 224 224 222 218 210 207 210 212 216 221 223 225 226 226 226 226 226 226 224 223 222 222 224 228 231 232 228 221 213 208 205 197 191 188 186 185 184 182 181 190 203 209 209 215 224
251 226 221 218 204 203 204 202 199 199 199 199 199 196 193 195 198 201 205 208 209 209 211 214 215 216 216 217 217 217 216 216 218 219 220 219 219 220 221 222 223 221 217 211 206 207 210 212 215 219 221 223 225 225 224 226 226 224 223 222 222 223 227 230 228 225 223 217 208 199 193 190 191 190 186 181 179 180 188 202 207 210 216 217 210
302 261 258 233 198 203 219 236 242 241 234 225 216 203 196 195 196 194 191 192 197 201 204 207 210 212 214 215 218 219 220 219 220 221 221 220 219 218 216 217 217 217 214 210 207 209 212 213 215 218 220 223 226 226 225 227 226 224 222 221 221 223 224 223 221 220 217 210 200 193 190 191 192 188 183 180 182 191 203 209 207 211 217 210 192
338 214 223 223 208 202 202 203 208 214 221 232 248 246 219 200 193 190 189 189 189 192 197 200 204 207 209 211 213 216 218 219 219 219 218 217 215 212 208 206 206 206 208 210 211 212 213 213 215 218 220 223 226 228 227 227 228 227 223 217 213 213 214 214 214 212 206 199 193 189 188 186 182 180 183 190 198 204 211 213 215 221 217 198 181
209 197 206 211 223 226 215 205 204 204 201 202 215 241 249 229 207 194 191 192 190 188 189 193 196 200 204 206 208 210 212 214 215 215 213 212 210 206 201 198 199 200 203 207 210 213 214 215 217 220 221 223 227 229 230 230 227 224 219 213 208 206 207 207 203 198 193 189 183 178 175 175 178 183 190 199 207 212 215 215 216 213 200 184 177
132 193 198 199 207 218 220 209 203 200 195 192 194 200 219 234 228 207 192 190 189 185 183 185 185 187 192 197 200 201 201 203 207 207 207 207 206 204 202 201 201 201 202 204 208 210 212 216 219 220 224 228 230 232 234 230 211 191 203 214 211 206 203 200 195 189 183 177 172 170 171 176 186 193 194 195 205 216 217 213 206 189 180 178 183
82 164 194 196 197 201 204 203 198 193 189 186 183 179 185 215 233 222 203 194 189 184 182 181 180 180 183 186 189 190 190 190 192 193 195 197 197 197 201 203 201 201 202 203 204 206 209 215 219 222 227 232 234 237 239 225 196 197 217 219 208 199 193 187 181 176 172 170 171 173 175 179 184 189 191 194 203 210 210 214 215 201 188 190 207
29 92 158 175 181 185 187 187 188 190 187 180 177 177 177 185 207 222 219 208 193 184 182 181 180 181 182 179 177 177 178 177 179 181 184 187 188 190 197 200 198 199 201 201 202 203 207 213 219 222 226 231 234 238 234 211 195 208 221 211 193 182 174 168 166 168 173 179 181 177 174 174 175 179 188 197 205 209 210 221 225 213 203 207 221
9 46 104 146 164 173 175 175 177 179 175 171 173 176 176 174 180 201 222 221 201 182 180 182 181 182 180 175 171 173 173 171 173 176 176 177 178 181 189 192 190 193 198 199 201 203 205 207 211 215 221 225 228 229 222 205 196 199 201 194 185 175 169 170 173 174 176 180 180 175 174 175 175 178 187 197 208 220 228 235 224 208 207 216 227
10 31 48 72 118 150 159 161 163 162 164 168 171 172 173 175 175 185 210 223 203 177 172 176 178 179 178 173 170 173 173 169 167 169 169 171 173 175 177 179 180 183 186 188 191 194 194 195 197 199 204 209 208 202 196 190 183 177 176 175 173 169 168 172 175 173 170 169 168 167 172 178 181 187 194 200 210 219 220 209 194 199 221 242 256
20 36 40 41 47 66 96 122 137 142 149 159 165 167 170 173 168 165 177 191 181 159 150 148 153 163 171 172 169 167 165 161 160 161 162 164 168 166 161 160 164 168 169 170 172 174 172 166 161 158 156 157 161 164 165 164 162 161 161 160 159 161 163 167 170 169 166 163 164 167 172 177 183 192 198 204 216 222 219 213 218 236 259 268 278
27 44 46 41 37 41 57 80 97 109 123 135 145 152 155 155 153 153 156 158 152 140 132 129 134 143 154 162 164 158 150 146 146 146 146 145 145 143 142 143 146 148 150 150 153 155 153 144 135 130 129 128 130 136 139 139 141 145 147 146 145 147 151 157 163 165 165 168 176 184 188 190 198 205 207 204 199 194 194 212 230 242 258 270 276
32 48 50 45 37 34 43 62 72 76 86 105 119 128 131 133 136 140 141 139 134 129 125 124 124 124 126 131 135 132 126 124 126 126 124 124 123 123 125 128 130 131 132 133 136 141 142 137 132 129 127 126 128 130 132 132 134 136 137 138 140 140 140 143 148 156 167 174 179 182 185 187 190 191 188 182 176 168 155 165 204 208 218 287 34
36 48 51 49 42 35 35 47 59 61 61 70 86 100 110 119 124 127 126 123 117 114 112 112 113 112 110 110 111 110 109 109 111 112 113 114 114 114 115 118 120 121 122 124 127 131 131 131 131 130 127 125 127 130 131 133 136 137 139 142 144 142 139 137 137 141 149 153 150 152 157 155 147 141 132 125 135 144 132 113 112 113 105 93 83
38 48 51 50 47 42 37 41 54 60 59 58 65 75 85 94 100 102 103 104 103 102 101 101 103 103 102 102 102 102 102 104 104 104 106 108 109 111 112 113 114 115 116 118 121 124 124 126 128 128 125 124 125 127 128 131 136 139 141 143 144 141 139 140 140 139 139 138 137 138 139 132 125 125 122 117 118 121 116 109 107 106 103 99 90
36 46 51 53 53 51 45 41 49 58 60 60 65 73 78 82 87 89 92 94 95 96 96 96 97 97 97 98 99 99 100 101 101 102 103 105 106 108 110 111 111 111 112 113 116 119 120 122 124 124 124 125 125 124 125 127 131 133 134 134 136 136 137 140 142 140 139 138 134 130 128 126 123 125 125 122 120 119 113 107 103 101 100 95 81
34 40 47 50 53 55 54 50 49 55 59 60 65 71 78 82 85 87 89 91 92 93 94 95 96 96 95 96 97 97 98 99 99 100 102 103 104 106 108 107 108 109 109 109 110 112 114 117 119 119 120 121 121 120 121 123 126 129 128 126 127 130 134 140 143 142 142 145 144 137 132 129 126 126 128 126 123 124 122 115 106 99 93 75 49
34 37 43 47 48 51 56 58 56 56 58 60 62 65 71 77 82 84 87 88 89 91 93 94 95 95 96 97 97 97 97 98 98 99 101 103 104 106 106 105 105 106 105 104 104 104 106 108 110 111 112 113 114 115 116 117 119 122 123 121 122 125 130 135 139 140 143 148 149 146 143 137 131 128 129 128 126 125 122 114 98 72 45 13 356
36 36 40 45 47 48 52 57 59 59 59 61 62 62 64 69 75 79 82 83 83 84 87 90 92 94 95 96 97 97 97 96 96 97 99 101 102 103 104 104 102 102 101 101 102 102 101 102 103 104 106 108 109 109 109 108 109 110 111 112 117 122 126 130 132 135 141 145 145 146 148 146 141 137 132 126 124 115 82 32 344 338 339 333 331
43 41 40 42 45 48 51 54 57 58 60 64 66 64 63 66 71 76 80 82 82 82 84 87 89 91 93 95 97 98 97 96 96 95 96 98 100 102 104 104 104 103 102 103 104 103 101 100 100 100 100 100 101 100 99 99 99 101 104 109 113 115 119 123 125 129 136 142 146 149 151 150 149 150 148 146 171 256 312 319 323 338 354 358 356
Height
779 783 786 789 792 793 795 797 800 802 804 807 809 811 813 815 817 819 821 823 825 827 829 830 832 833 835 836 838 839 841 842 844 845 847 848 849 851 852 852 853 853 854 855 855 856 856 856 857 858 858 859 859 859 860 860 860 860 861 861 860 860 860 860 860 858 857 858 858 857 857 856 855 855 854 852 851 851 850 849 849 847 845 844 843
775 779 782 786 788 790 793 795 797 799 801 804 805 808 810 812 814 816 818 820 822 824 826 827 829 831 832 834 835 836 838 839 841 843 844 845 847 848 849 850 851 851 852 853 853 854 855 855 856 856 857 858 858 858 858 858 859 859 859 859 859 859 859 858 858 857 856 856 856 856 855 855 854 853 853 851 849 849 848 847 846 845 844 842 841
770 774 778 781 784 788 790 792 795 796 798 800 802 804 807 809 812 814 815 818 820 821 823 824 826 828 830 832 833 834 835 836 838 839 841 843 844 845 847 847 848 849 850 850 851 852 853 853 854 854 855 856 856 857 857 857 857 857 857 858 858 857 857 857 856 855 854 854 855 855 854 854 853 852 851 849 848 847 846 845 844 843 842 840 839
766 770 773 777 781 784 787 789 791 793 795 797 799 801 804 806 809 811 813 815 817 819 820 821 823 825 827 828 830 832 833 834 835 836 838 839 841 842 844 845 846 847 847 848 849 850 850 851 852 853 853 854 854 855 855 855 855 855 856 856 856 856 856 855 855 854 854 853 853 853 853 852 851 850 849 848 846 846 844 843 842 841 840 839 838
762 765 769 773 776 779 782 785 787 789 791 794 796 798 801 803 805 807 809 812 814 816 818 819 820 822 823 825 827 828 829 831 832 833 835 836 838 839 841 842 843 844 845 846 847 847 848 849 850 851 851 852 852 853 853 853 854 854 854 854 854 854 854 854 854 853 853 852 851 851 851 851 849 848 848 846 845 844 842 841 840 840 839 838 837
758 761 765 768 771 774 777 780 783 786 788 790 793 795 798 800 802 804 806 808 810 812 814 816 817 819 820 822 823 825 827 828 829 830 832 833 835 836 838 839 840 841 843 844 844 845 846 846 847 848 849 850 850 851 851 851 852 852 852 852 852 852 852 852 852 852 852 851 850 850 849 849 848 846 846 845 844 842 841 839 839 839 838 837 836
753 757 760 764 767 770 773 776 779 782 784 787 789 792 794 796 798 800 803 805 807 808 810 812 814 816 817 819 821 822 824 825 826 828 829 831 832 833 835 836 838 839 840 841 842 843 843 844 845 846 847 847 848 848 849 850 850 850 850 850 851 851 851 850 850 850 850 850 849 849 847 847 846 845 844 844 843 841 840 838 837 837 837 836 834
748 752 756 759 762 765 768 772 775 778 781 783 786 788 791 793 795 797 800 801 803 804 806 808 810 812 814 816 818 820 821 823 824 825 827 828 829 830 832 833 834 836 837 838 839 840 841 842 843 843 844 845 845 846 847 847 848 848 848 848 849 849 849 849 849 849 849 848 848 847 846 845 844 843 843 842 841 839 839 837 836 836 836 834 833
744 748 752 755 758 761 765 769 772 775 778 780 782 784 786 789 791 794 796 798 800 801 803 804 806 808 811 813 815 817 818 819 820 822 823 825 826 827 828 830 831 833 834 835 836 837 838 839 840 840 841 842 842 843 844 845 845 846 846 846 847 847 847 847 847 847 847 846 846 845 844 843 842 841 841 840 840 838 838 837 836 835 834 833 832
741 744 748 751 755 759 762 765 768 772 774 776 778 780 783 785 788 790 792 794 797 799 800 802 803 805 807 809 811 813 814 816 817 818 820 821 823 824 825 827 828 830 831 832 833 834 835 836 836 837 838 839 840 841 841 842 842 843 843 843 844 844 844 844 844 844 845 844 844 843 842 840 839 839 839 838 838 838 837 836 835 834 834 832 831
737 741 744 748 752 756 758 761 764 767 770 772 775 777 779 782 783 785 788 790 793 796 797 799 800 802 803 805 807 809 810 812 813 815 816 818 820 821 822 824 825 827 828 829 830 831 832 833 834 835 836 836 837 837 838 838 839 839 840 840 841 841 841 841 841 841 842 842 841 841 840 838 836 836 837 836 836 836 835 835 834 833 833 832 830
735 738 741 744 748 752 755 757 760 763 766 768 771 773 776 778 780 782 783 786 789 792 794 795 796 799 800 802 803 804 806 807 809 811 813 815 817 818 820 821 822 824 825 826 827 828 829 830 831 832 833 833 834 834 834 835 835 836 836 837 837 837 838 838 838 838 839 839 839 838 837 836 834 834 834 834 834 834 833 833 833 832 831 831 829
731 734 736 740 743 747 751 753 756 758 761 764 767 770 772 774 775 777 779 782 785 787 789 791 793 795 797 798 799 801 802 804 805 807 809 811 814 816 817 819 820 821 822 823 824 825 826 827 828 829 830 830 831 831 831 831 832 832 833 833 834 834 834 834 835 835 836 836 836 835 833 833 832 831 831 832 832 832 831 831 831 830 830 829 828
728 729 732 735 738 742 746 748 751 754 757 760 763 765 767 769 771 774 776 778 781 783 785 787 789 791 792 794 796 797 798 800 801 803 806 808 810 812 814 816 817 818 819 820 821 822 823 824 825 825 826 827 828 828 828 828 828 828 829 830 830 830 831 831 832 832 833 833 833 831 830 830 830 828 829 830 830 830 830 829 829 828 828 827 826
724 725 728 730 733 737 740 743 747 750 753 756 758 760 763 765 768 770 772 774 776 778 780 783 784 786 788 790 792 794 795 797 799 801 802 805 807 810 812 813 815 816 816 817 818 819 819 820 821 822 823 823 824 825 825 825 825 825 826 826 826 827 827 827 828 829 829 830 829 828 827 827 827 827 827 828 828 828 828 828 827 826 826 825 825
719 721 723 725 728 731 735 738 742 745 749 751 753 755 758 761 764 766 768 770 772 774 776 779 780 782 784 786 788 789 791 793 795 798 800 802 804 807 809 811 812 813 813 814 815 815 816 817 818 818 819 819 820 821 822 823 823 823 823 823 823 823 823 824 825 826 827 827 826 825 825 825 825 825 826 826 826 827 827 826 826 825 825 824 823
715 716 718 720 723 726 730 734 737 741 744 746 748 750 753 756 759 762 764 766 768 770 772 774 776 778 780 782 783 785 787 789 791 794 796 798 801 803 805 807 808 809 810 811 812 812 813 813 814 815 815 815 816 817 819 820 820 820 820 820 820 820 820 821 822 823 824 824 823 823 823 823 823 824 824 825 825 825 826 825 824 824 824 823 822
711 712 713 716 719 722 726 729 733 736 739 741 744 746 748 751 754 757 759 761 763 765 767 769 772 774 776 778 779 781 783 784 787 789 792 794 797 798 800 802 804 805 806 807 808 809 809 810 810 811 811 811 812 813 815 817 817 817 817 817 818 817 817 818 819 820 821 821 821 821 820 820 821 821 822 823 823 824 824 823 823 823 823 823 822
707 708 710 713 716 719 722 725 728 731 734 736 740 743 745 747 749 752 755 757 759 761 763 765 768 769 771 774 775 777 779 781 783 785 787 790 792 794 796 798 800 801 802 803 804 805 805 806 807 807 807 807 808 810 811 812 813 813 814 815 815 814 814 816 817 817 818 818 818 818 818 818 818 819 820 821 822 822 822 821 822 822 822 823 823
704 706 708 711 713 715 717 720 723 726 729 732 736 740 742 744 746 748 751 753 755 757 759 761 763 765 767 769 771 774 776 777 779 781 783 785 787 789 791 793 795 796 797 798 799 800 801 802 802 803 803 804 805 806 807 808 809 810 811 811 811 811 812 814 814 815 815 815 816 816 816 816 816 817 818 819 820 820 820 820 821 821 822 823 823
702 704 705 706 709 711 713 716 718 721 725 729 733 736 739 741 743 745 747 749 751 753 754 756 759 761 763 765 767 769 771 773 775 777 779 780 782 785 786 788 789 791 792 793 795 796 797 797 798 798 799 800 801 802 804 805 806 807 807 807 808 809 810 811 812 812 813 813 814 814 814 814 815 816 817 818 819 818 818 819 820 821 822 822 823
700 700 700 702 704 707 710 712 715 718 722 725 728 731 734 738 740 742 744 745 747 749 750 752 754 756 759 761 763 765 767 769 770 772 775 776 778 780 781 782 784 786 787 789 790 791 792 793 793 794 795 796 798 799 800 801 802 803 803 804 805 806 807 808 809 810 811 811 812 813 813 814 815 816 817 818 817 817 817 818 820 821 821 822 822
696 696 696 697 699 702 705 708 711 715 717 720 723 727 730 733 736 738 740 742 743 745 747 748 750 752 754 756 759 761 763 764 766 768 770 772 774 775 776 778 780 782 783 784 786 787 788 788 789 789 790 792 794 795 797 798 798 799 800 801 802 803 804 805 806 807 808 809 810 811 812 814 815 816 817 818 817 817 817 818 819 820 821 821 821
692 692 691 692 693 697 700 703 707 710 713 716 719 722 725 728 730 733 736 737 739 741 742 744 745 747 749 752 754 756 758 760 761 763 765 767 769 770 772 774 776 777 779 780 782 783 784 784 785 786 787 789 790 792 793 794 794 795 796 798 799 800 801 802 803 804 806 807 808 809 811 813 815 816 817 817 817 817 817 818 819 819 819 819 819
687 686 686 687 688 691 695 698 702 705 708 711 713 716 719 723 725 728 730 732 735 736 738 740 741 742 744 747 749 751 753 755 756 758 760 762 764 765 768 770 772 774 775 776 778 779 780 781 782 783 785 786 787 788 789 790 790 791 793 794 795 796 797 799 800 802 803 804 806 807 810 812 814 815 816 816 816 816 816 816 816 816 815 815 815
682 681 682 682 683 686 690 693 697 699 702 705 707 710 714 717 720 723 725 727 729 731 733 735 736 738 740 741 743 746 748 749 751 752 755 757 759 761 763 766 768 770 771 773 775 776 777 778 780 781 782 783 783 784 785 786 787 788 789 790 791 793 794 796 798 799 801 802 804 806 808 810 812 813 814 813 813 813 812 812 811 810 810 810 811
677 676 677 678 679 682 685 688 691 694 697 700 703 706 709 712 715 718 719 721 723 725 728 730 731 733 735 737 739 741 743 744 746 747 750 752 754 757 759 761 764 766 768 770 772 773 774 776 777 778 779 780 780 781 781 782 783 784 785 786 788 789 791 793 795 797 799 801 803 805 807 808 809 810 810 810 809 807 806 805 804 804 805 806 808
672 672 672 673 675 676 678 681 685 688 692 695 698 701 704 707 709 710 712 714 716 719 721 724 725 727 729 732 735 737 738 739 739 741 743 746 749 752 754 757 759 761 763 766 767 769 771 773 774 775 776 776 777 777 778 779 779 780 782 783 784 787 789 791 793 795 797 799 801 802 804 804 805 805 805 804 802 800 800 800 801 803 804 805 807
668 668 668 669 670 671 673 676 680 684 687 691 694 697 699 702 705 706 708 710 712 714 716 718 720 722 725 728 730 732 732 733 733 735 739 741 744 747 749 751 753 756 758 761 763 766 768 769 771 771 772 773 774 774 775 776 776 777 778 780 782 784 786 788 791 793 794 796 797 799 800 800 799 799 798 797 797 798 799 801 804 806 808 808 808
664 664 664 665 665 667 669 672 676 680 685 688 691 694 696 699 701 704 706 709 711 713 715 716 717 720 722 723 725 725 726 727 729 733 736 738 740 742 744 746 748 751 754 757 760 762 764 765 767 768 769 770 771 771 772 773 774 775 776 777 779 781 783 786 788 790 791 792 793 794 794 794 794 794 794 796 798 800 802 804 807 809 810 809 809
660 660 660 660 661 663 666 670 674 678 681 684 687 690 693 697 699 702 704 707 710 712 714 716 718 719 720 720 722 723 724 726 729 730 732 735 737 738 740 743 745 747 750 753 756 759 761 762 764 765 766 767 767 768 769 769 770 772 773 775 777 779 781 783 785 786 788 788 789 789 790 790 792 793 794 796 798 800 802 804 805 807 808 808 809
658 656 657 658 660 662 666 669 672 676 679 682 685 688 691 694 697 699 702 704 707 709 712 715 717 718 719 719 720 721 724 726 728 729 730 733 734 736 738 740 742 744 747 749 751 754 756 758 760 761 762 763 763 764 765 766 767 768 770 772 774 776 778 780 782 783 784 784 785 786 787 789 791 792 793 794 795 797 799 800 802 803 804 806 807
659 658 660 662 665 668 671 672 673 675 677 679 682 685 688 691 693 696 698 701 704 706 709 712 714 715 716 718 718 719 721 724 726 727 729 731 732 734 735 737 739 741 743 745 748 750 752 754 755 756 757 758 758 760 761 762 763 765 767 769 771 773 775 777 778 779 780 781 782 783 784 786 788 789 790 791 792 793 795 796 798 799 801 803 804
660 661 663 664 666 668 671 675 678 679 681 682 684 683 683 686 690 693 696 699 701 703 705 707 709 711 713 714 716 718 719 722 723 724 726 728 730 731 733 734 736 738 740 742 743 745 747 748 749 751 752 753 755 756 757 758 760 762 764 766 769 770 772 774 775 776 777 778 779 780 781 782 784 785 787 788 789 791 792 794 795 797 798 800 801
660 661 663 664 664 664 665 668 671 674 678 683 689 690 688 687 688 691 694 696 698 700 702 703 705 707 709 711 713 715 717 719 720 722 724 725 727 729 730 731 733 735 737 738 739 740 741 743 745 747 749 750 751 752 753 755 757 759 761 764 766 768 769 770 770 771 772 773 774 775 777 779 781 783 786 787 789 791 792 793 794 795 796 797 798
660 660 661 663 665 667 667 666 666 667 670 674 681 688 693 695 693 691 692 694 697 699 701 702 703 705 707 709 711 713 715 716 718 719 721 723 724 726 727 728 729 730 731 733 735 737 739 741 742 744 746 747 748 749 750 751 753 756 759 762 764 764 764 765 766 767 769 771 773 775 777 779 781 783 785 787 789 790 791 792 793 793 794 795 795
659 659 659 660 663 665 666 667 667 668 671 673 676 680 688 696 699 696 693 694 696 697 699 701 702 704 706 708 709 711 712 714 716 717 719 721 722 723 724 725 726 727 728 730 732 735 737 738 740 742 743 745 745 746 748 748 749 753 758 761 760 759 759 761 764 767 769 772 775 777 779 780 781 782 784 786 788 789 790 790 791 792 792 793 793
659 657 656 657 659 660 663 664 665 666 669 671 674 677 681 689 697 699 697 694 694 695 697 698 700 701 703 704 706 708 710 712 714 715 717 719 721 722 723 723 724 725 726 727 730 732 734 736 738 740 742 743 743 744 745 744 745 750 755 757 756 756 758 761 765 768 771 774 775 776 777 778 780 781 784 786 787 788 789 790 790 790 791 791 792
661 656 655 655 655 657 659 660 662 664 665 666 670 673 676 681 689 697 701 698 693 692 694 696 697 699 700 701 704 706 708 710 711 713 715 717 720 722 723 723 724 725 725 727 729 731 733 735 737 738 740 740 741 742 742 741 742 747 753 756 757 758 759 762 765 768 770 771 772 773 774 776 778 780 782 784 785 787 788 789 789 789 790 790 791
663 658 655 654 654 655 656 657 658 660 661 663 666 671 674 675 679 687 697 699 694 690 691 694 695 696 698 700 702 705 706 708 710 711 713 716 719 721 722 723 724 725 726 727 728 730 732 733 735 736 737 738 739 739 739 740 740 743 748 753 756 756 758 760 763 764 765 766 768 770 772 774 777 779 781 782 784 785 786 787 788 788 789 789 790
666 660 656 655 655 655 655 656 657 658 659 660 663 667 671 673 674 678 689 697 696 691 690 693 694 695 698 700 702 704 705 706 708 711 713 715 718 720 721 722 723 724 725 726 727 729 731 732 733 735 736 737 737 738 739 740 741 742 746 750 752 754 756 758 760 762 764 766 768 770 772 773 776 778 780 781 783 784 785 786 787 787 788 789 790
670 662 658 658 658 658 657 657 657 658 658 658 660 662 666 669 671 673 681 692 695 692 690 692 694 695 698 701 702 703 704 705 708 710 713 715 717 719 720 722 723 723 724 725 726 728 729 731 732 734 735 736 737 739 740 741 743 744 747 749 752 754 756 758 760 762 765 767 769 771 772 773 775 777 779 780 782 782 783 785 786 787 788 788 789
672 663 659 660 661 661 661 660 659 659 659 658 659 662 664 666 669 671 675 684 690 690 689 692 694 696 699 701 702 702 704 705 708 710 713 715 717 719 720 722 723 724 725 726 727 728 729 730 732 734 735 736 738 739 741 743 745 746 748 749 751 754 756 758 760 763 764 766 768 770 772 774 775 777 778 780 781 781 783 784 785 786 787 788 788
675 665 662 664 665 665 664 663 662 662 662 660 660 663 664 665 668 672 675 681 685 686 687 690 694 696 699 701 702 702 704 706 708 710 713 716 718 720 721 723 724 724 725 726 727 728 728 729 732 734 735 737 739 740 742 744 746 748 750 751 752 754 756 759 761 762 763 765 766 768 771 773 775 776 777 778 779 780 781 783 784 785 786 787 787
679 671 669 670 671 671 670 667 665 665 665 665 665 667 667 668 671 674 677 680 682 684 687 690 693 696 699 701 703 704 706 708 710 712 715 717 720 722 723 724 724 725 726 727 728 729 729 730 732 734 736 738 739 741 743 746 748 750 752 753 754 756 758 760 762 762 763 764 766 767 769 771 773 774 775 776 777 778 780 782 783 784 785 785 786
684 679 677 676 676 676 675 673 670 668 668 670 671 672 673 673 675 677 680 681 682 685 688 692 695 698 700 703 706 708 709 711 713 715 717 719 721 723 725 725 726 726 728 729 730 730 731 732 733 734 736 739 741 742 744 747 749 752 753 754 756 757 759 760 761 762 763 765 766 768 768 769 770 772 773 774 776 778 780 781 782 783 784 785 785
690 686 684 683 682 681 681 680 677 674 676 678 678 677 678 679 679 682 684 685 686 688 692 695 699 702 704 707 709 711 712 714 716 718 720 722 724 726 727 727 727 728 729 731 732 733 733 734 735 736 737 739 741 744 746 748 751 753 754 755 757 758 760 761 761 763 764 766 767 768 769 769 770 772 773 774 776 778 779 781 782 783 783 784 784
695 692 689 687 686 686 686 686 685 685 686 687 685 682 682 683 685 687 689 690 691 693 697 700 703 706 708 711 713 714 716 718 719 721 724 725 727 728 729 729 730 731 732 733 735 736 737 739 739 739 739 741 743 746 748 751 753 754 755 757 758 759 760 761 762 763 765 766 767 767 769 770 770 771 773 774 776 777 779 780 781 782 782 782 782
697 695 693 692 691 691 691 691 691 692 693 692 690 688 687 688 690 692 693 695 696 698 700 703 706 709 712 714 716 717 719 721 723 726 727 729 730 731 731 732 733 734 734 736 738 740 743 744 744 743 743 745 747 750 752 754 755 756 757 758 759 760 761 762 763 763 765 766 766 768 769 770 770 772 773 774 776 777 778 779 780 780 780 781 781
701 699 698 697 696 696 696 696 696 697 697 695 694 695 695 694 694 696 697 698 700 702 704 707 710 713 715 717 718 720 722 725 728 730 731 732 733 733 734 734 736 737 737 738 740 743 746 747 747 747 748 749 751 753 755 757 758 758 759 760 761 762 763 763 764 764 765 766 767 768 769 770 771 772 773 774 775 776 777 778 778 778 779 779 779
707 706 705 704 703 702 701 700 701 702 702 701 700 701 703 702 701 701 702 703 705 708 711 712 714 717 718 719 721 723 725 728 731 733 734 735 736 736 737 737 739 740 740 741 743 746 748 749 750 751 753 754 755 756 758 760 760 761 762 762 763 764 764 765 766 766 767 767 768 769 769 770 771 772 773 773 774 775 776 777 777 777 778 778 778